• In Italy
  • List of Countries
  • For 7 days
  • Water Temperature
  • Satellite Maps
  • Weather Map
  • Weather Widgets
  • user-avatar
    Login

    Hourly Weather Nazaret

    Today, 16 January, Tuesday

    Time Temperature Precipitation Wind Pressure Humidity
    00:00 +12°C° 0.1 mm 2 mps 736 mmHg 82%
    01:00 +12°C° 0.1 mm 2 mps 736 mmHg 82%
    02:00 +12°C° 0 mm 2 mps 736 mmHg 84%
    03:00 +12°C° 0.1 mm 2 mps 736 mmHg 84%
    04:00 +12°C° 0.1 mm 2 mps 736 mmHg 85%
    05:00 +10°C° 0.1 mm 2 mps 735 mmHg 85%
    06:00 +12°C° 0.1 mm 1 mps 735 mmHg 83%
    07:00 +12°C° 0.1 mm 1 mps 735 mmHg 81%
    08:00 +13°C° 0 mm 1 mps 735 mmHg 78%
    09:00 +14°C° 0.1 mm 2 mps 735 mmHg 73%
    10:00 +15°C° 0.1 mm 2 mps 735 mmHg 69%
    11:00 +16°C° 0.1 mm 3 mps 735 mmHg 65%
    12:00 +16°C° 0 mm 3 mps 735 mmHg 63%
    13:00 +16°C° 0 mm 3 mps 734 mmHg 62%
    14:00 +15°C° 0 mm 4 mps 734 mmHg 61%
    15:00 +14°C° 0 mm 3 mps 733 mmHg 65%
    16:00 +13°C° 0 mm 3 mps 733 mmHg 68%
    17:00 +13°C° 0 mm 3 mps 733 mmHg 71%
    18:00 +13°C° 0 mm 2 mps 733 mmHg 72%
    19:00 +13°C° 0 mm 2 mps 732 mmHg 73%
    20:00 +12°C° 0 mm 2 mps 732 mmHg 73%
    21:00 +12°C° 0 mm 2 mps 732 mmHg 73%
    22:00 +12°C° 0 mm 2 mps 732 mmHg 74%
    23:00 +12°C° 0 mm 2 mps 732 mmHg 74%

    Tomorrow, 17 January, Wednesday

    Time Temperature Precipitation Wind Pressure Humidity
    00:00 +12°C° 0 mm 2 mps 732 mmHg 75%
    01:00 +12°C° 0 mm 2 mps 731 mmHg 76%
    02:00 +10°C° 0 mm 2 mps 731 mmHg 76%
    03:00 +10°C° 0.1 mm 2 mps 731 mmHg 77%
    04:00 +10°C° 0.1 mm 2 mps 730 mmHg 79%
    05:00 +10°C° 0.1 mm 2 mps 730 mmHg 80%
    06:00 +10°C° 0.1 mm 2 mps 730 mmHg 78%
    07:00 +12°C° 0.1 mm 2 mps 730 mmHg 77%
    08:00 +12°C° 0.1 mm 2 mps 730 mmHg 76%
    09:00 +12°C° 0.2 mm 3 mps 730 mmHg 72%
    10:00 +13°C° 0.2 mm 4 mps 730 mmHg 68%
    11:00 +14°C° 0.2 mm 5 mps 730 mmHg 64%
    12:00 +13°C° 1.1 mm 5 mps 730 mmHg 67%
    13:00 +13°C° 1.1 mm 5 mps 729 mmHg 71%
    14:00 +13°C° 1.1 mm 5 mps 729 mmHg 74%
    15:00 +13°C° 0.2 mm 4 mps 729 mmHg 76%
    16:00 +12°C° 0.2 mm 3 mps 729 mmHg 78%
    17:00 +12°C° 0.2 mm 3 mps 729 mmHg 80%
    18:00 +13°C° 0.1 mm 2 mps 729 mmHg 81%
    19:00 +12°C° 0.1 mm 2 mps 729 mmHg 82%
    20:00 +12°C° 0.1 mm 2 mps 729 mmHg 84%
    21:00 +12°C° 0.1 mm 2 mps 729 mmHg 84%
    22:00 +12°C° 0.1 mm 2 mps 729 mmHg 85%
    23:00 +10°C° 0.1 mm 3 mps 729 mmHg 85%

    Day after tomorrow, 18 January, Thursday

    Time Temperature Precipitation Wind Pressure Humidity
    00:00 +10°C° 0.2 mm 3 mps 729 mmHg 85%
    01:00 +10°C° 0.2 mm 3 mps 729 mmHg 85%
    02:00 +10°C° 0.2 mm 3 mps 729 mmHg 85%
    03:00 +10°C° 0.2 mm 3 mps 729 mmHg 85%
    04:00 +10°C° 0.2 mm 3 mps 729 mmHg 85%
    05:00 +10°C° 0.2 mm 3 mps 728 mmHg 85%
    06:00 +11°C° 0.1 mm 4 mps 728 mmHg 84%
    07:00 +11°C° 0.1 mm 4 mps 728 mmHg 83%
    08:00 +10°C° 0.1 mm 5 mps 728 mmHg 82%
    09:00 +11°C° 0.5 mm 6 mps 728 mmHg 79%
    10:00 +11°C° 0.5 mm 6 mps 728 mmHg 76%
    11:00 +12°C° 0.5 mm 7 mps 728 mmHg 73%
    12:00 +12°C° 1 mm 8 mps 727 mmHg 73%
    13:00 +13°C° 1 mm 9 mps 726 mmHg 73%
    14:00 +13°C° 1 mm 9 mps 725 mmHg 73%
    15:00 +13°C° 0.5 mm 9 mps 725 mmHg 74%
    16:00 +12°C° 0.5 mm 9 mps 724 mmHg 74%
    17:00 +12°C° 0.5 mm 9 mps 724 mmHg 74%
    18:00 +12°C° 1.6 mm 10 mps 723 mmHg 74%
    19:00 +12°C° 1.6 mm 11 mps 723 mmHg 74%
    20:00 +12°C° 1.6 mm 11 mps 723 mmHg 74%
    21:00 +10°C° 2.7 mm 12 mps 722 mmHg 73%
    22:00 +9°C° 2.7 mm 13 mps 722 mmHg 73%
    23:00 +8°C° 2.7 mm 14 mps 722 mmHg 72%

    19 January, Friday

    Time Temperature Precipitation Wind Pressure Humidity
    00:00 +6°C° 0.7 mm 14 mps 722 mmHg 72%
    01:00 +7°C° 0.7 mm 13 mps 723 mmHg 72%
    02:00 +5°C° 0.7 mm 12 mps 723 mmHg 72%
    03:00 +5°C° 0.9 mm 12 mps 723 mmHg 71%
    04:00 +5°C° 0.9 mm 12 mps 723 mmHg 69%
    05:00 +5°C° 0.9 mm 12 mps 724 mmHg 68%
    06:00 +6°C° 0.4 mm 11 mps 724 mmHg 68%
    07:00 +7°C° 0.4 mm 10 mps 725 mmHg 68%
    08:00 +7°C° 0.4 mm 9 mps 726 mmHg 68%
    09:00 +8°C° 0.2 mm 9 mps 727 mmHg 64%
    10:00 +8°C° 0.2 mm 9 mps 728 mmHg 60%
    11:00 +10°C° 0.2 mm 9 mps 728 mmHg 56%
    12:00 +10°C° 0 mm 9 mps 728 mmHg 55%
    13:00 +10°C° 0 mm 8 mps 729 mmHg 54%
    14:00 +10°C° 0 mm 8 mps 729 mmHg 53%
    15:00 +9°C° 0 mm 7 mps 729 mmHg 55%
    16:00 +9°C° 0 mm 5 mps 730 mmHg 57%
    17:00 +8°C° 0 mm 4 mps 730 mmHg 58%
    18:00 +7°C° 0 mm 4 mps 731 mmHg 60%
    19:00 +8°C° 0 mm 3 mps 731 mmHg 61%
    20:00 +8°C° 0 mm 3 mps 732 mmHg 62%
    21:00 +8°C° 0 mm 3 mps 732 mmHg 64%
    22:00 +8°C° 0 mm 2 mps 733 mmHg 66%
    23:00 +7°C° 0 mm 2 mps 733 mmHg 67%

    20 January, Saturday

    Time Temperature Precipitation Wind Pressure Humidity
    00:00 +7°C° 0 mm 2 mps 733 mmHg 68%
    01:00 +7°C° 0 mm 2 mps 733 mmHg 69%
    02:00 +8°C° 0 mm 1 mps 734 mmHg 70%
    03:00 +8°C° 0 mm 1 mps 734 mmHg 71%
    04:00 +7°C° 0 mm 1 mps 734 mmHg 71%
    05:00 +7°C° 0 mm 1 mps 734 mmHg 72%
    06:00 +7°C° 0 mm 2 mps 734 mmHg 71%
    07:00 +8°C° 0 mm 2 mps 735 mmHg 70%
    08:00 +8°C° 0 mm 2 mps 735 mmHg 69%
    09:00 +10°C° 0 mm 2 mps 735 mmHg 64%
    10:00 +12°C° 0 mm 2 mps 736 mmHg 59%
    11:00 +14°C° 0 mm 2 mps 736 mmHg 54%
    12:00 +15°C° 0 mm 2 mps 735 mmHg 50%
    13:00 +15°C° 0 mm 1 mps 735 mmHg 47%
    14:00 +16°C° 0 mm 1 mps 734 mmHg 44%
    15:00 +15°C° 0 mm 1 mps 734 mmHg 46%
    16:00 +14°C° 0 mm 1 mps 734 mmHg 49%
    17:00 +13°C° 0 mm 1 mps 734 mmHg 51%
    18:00 +13°C° 0 mm 1 mps 734 mmHg 51%
    19:00 +12°C° 0 mm 2 mps 735 mmHg 51%
    20:00 +12°C° 0 mm 2 mps 735 mmHg 50%
    21:00 +10°C° 0 mm 3 mps 734 mmHg 50%
    22:00 +10°C° 0 mm 3 mps 734 mmHg 49%
    23:00 +10°C° 0 mm 4 mps 734 mmHg 49%

    21 January, Sunday

    Time Temperature Precipitation Wind Pressure Humidity
    00:00 +10°C° 0 mm 4 mps 734 mmHg 49%
    01:00 +8°C° 0 mm 5 mps 733 mmHg 50%
    02:00 +8°C° 0 mm 5 mps 733 mmHg 50%
    03:00 +8°C° 0 mm 6 mps 733 mmHg 50%
    04:00 +8°C° 0 mm 6 mps 733 mmHg 50%
    05:00 +8°C° 0 mm 6 mps 732 mmHg 50%
    06:00 +8°C° 0 mm 7 mps 732 mmHg 50%
    07:00 +8°C° 0 mm 7 mps 732 mmHg 50%
    08:00 +9°C° 0 mm 7 mps 732 mmHg 50%
    09:00 +11°C° 0 mm 7 mps 732 mmHg 46%
    10:00 +12°C° 0 mm 7 mps 732 mmHg 42%
    11:00 +15°C° 0 mm 7 mps 732 mmHg 37%
    12:00 +16°C° 0 mm 6 mps 731 mmHg 36%
    13:00 +17°C° 0 mm 6 mps 730 mmHg 34%
    14:00 +19°C° 0 mm 5 mps 730 mmHg 32%
    15:00 +17°C° 0 mm 5 mps 729 mmHg 34%
    16:00 +15°C° 0 mm 4 mps 729 mmHg 36%
    17:00 +14°C° 0 mm 4 mps 729 mmHg 38%
    18:00 +14°C° 0 mm 4 mps 729 mmHg 37%
    19:00 +13°C° 0 mm 4 mps 729 mmHg 36%
    20:00 +13°C° 0 mm 4 mps 729 mmHg 36%
    21:00 +12°C° 0 mm 4 mps 729 mmHg 36%
    22:00 +12°C° 0 mm 4 mps 729 mmHg 36%
    23:00 +12°C° 0 mm 4 mps 728 mmHg 36%
    Show more